Warning: Javascript must be enabled to use all the features on this page!


Page Loading - Please Wait...

Click to hideNews Bulletins

Peak Streamflow for New Jersey

Click to hide state-specific text

ALL DATA ARE AT LOCAL TIME


USGS 01394000 West Branch Rahway River at Millburn NJ

Essex County, New Jersey
Hydrologic Unit Code 02030104
Latitude  40°43'54", Longitude  74°18'27" NAD83
Drainage area 7.10  square miles
Gage datum 173.65 feet above NGVD29
Output formats
Table
Graph
Tab-separated file
peakfq (watstore) format
Reselect output format
Water
Year
Date Gage
Height
(feet)
Stream-
flow
(cfs)
1938 1938-07-23 3.07 965
1940 1940-05-31 2.46 517
1941 1941-02-07 1.96 258
1942 1942-08-09 3.15 1,060
1943 1942-12-30 2.09 326
1944 1944-03-13 2.20 387
1945 1945-07-23 3.19 1,090
1946 1946-06-02 2.26 422
1947 1947-04-05 2.03 294
1948 1947-11-08 2.85 820
1949 1948-12-31 2.09 326
1950 1950-03-23 1.68 136
1962 1962-03-12 3.39 1,2507
1973 1973-08-02 4.40 2,2707
1998 1998-06-14 2.13 266
1999 1999-09-16 5.20 2,840
2000 2000-05-18 2.02 210
2001 2000-12-17 2.70 650
2002 2002-05-14 2.22 316
2003 2003-06-21 2.87 791
2004 2003-12-11 2.81 740
2005 2004-11-28 2.78 714
2006 2005-12-16 2.69 714
2007 2007-04-15 3.98 1,790
2008 2008-09-06 2.65 611
2009 2008-12-12 2.68 634
2010 2010-03-30 3.795 1,610
2011 2011-08-28 4.86 2,610
2012 2011-12-08 2.70 6502
2013 2013-06-08 2.71 6602
2014 2014-04-30 3.74 1,560
2015 2015-04-20 2.85 745
2016 2016-02-25 3.08 967
?
  Peak Gage-Height Qualification Codes.
?
  Peak Streamflow Qualification Codes.